This is the latest recevied weather packets stored in our database for station/object OK1JRA-6. If no packets are shown the sender has not sent any weather packets the latest 1 day(s).
| Time | Temp. | Humidity | Pressure | Rain* | Wind** | Luminosity | Snow |
|---|---|---|---|---|---|---|---|
| 1777973298 | 32.78° C | 25% | 1008 hPa | 0 mm | 0.45 m/s, 98° | - | - |
| 1777973297 | 32.78° C | 25% | 1008 hPa | 0 mm | 0.45 m/s, 98° | - | - |
| 1777973297 | 32.78° C | 25% | 1008 hPa | 0 mm | 0.45 m/s, 98° | - | - |
| 1777972991 | 32.22° C | 25% | 1008 hPa | 0 mm | 0.45 m/s, 312° | - | - |
| 1777972689 | 31.67° C | 25% | 1008.1 hPa | 0 mm | 0.45 m/s, 157° | - | - |
| 1777972689 | 31.67° C | 25% | 1008.1 hPa | 0 mm | 0.45 m/s, 157° | - | - |
| 1777972685 | 31.67° C | 25% | 1008.1 hPa | 0 mm | 0.45 m/s, 157° | - | - |
| 1777972685 | 31.67° C | 25% | 1008.1 hPa | 0 mm | 0.45 m/s, 157° | - | - |
| 1777972685 | 31.67° C | 25% | 1008.1 hPa | 0 mm | 0.45 m/s, 157° | - | - |
| 1777972383 | 31.11° C | 26% | 1008.1 hPa | 0 mm | 0.45 m/s, 152° | - | - |
| 1777972382 | 31.11° C | 26% | 1008.1 hPa | 0 mm | 0.45 m/s, 152° | - | - |
| 1777972379 | 31.11° C | 26% | 1008.1 hPa | 0 mm | 0.45 m/s, 152° | - | - |
| 1777972379 | 31.11° C | 26% | 1008.1 hPa | 0 mm | 0.45 m/s, 152° | - | - |
| 1777972379 | 31.11° C | 26% | 1008.1 hPa | 0 mm | 0.45 m/s, 152° | - | - |
| 1777972076 | 30° C | 26% | 1008.1 hPa | 0 mm | 0.89 m/s, 141° | - | - |
| 1777972076 | 30° C | 26% | 1008.1 hPa | 0 mm | 0.89 m/s, 141° | - | - |
| 1777972073 | 30° C | 26% | 1008.1 hPa | 0 mm | 0.89 m/s, 141° | - | - |
| 1777972073 | 30° C | 26% | 1008.1 hPa | 0 mm | 0.89 m/s, 141° | - | - |
| 1777971770 | 29.44° C | 27% | 1008.2 hPa | 0 mm | 0.45 m/s, 162° | - | - |
| 1777971767 | 29.44° C | 27% | 1008.2 hPa | 0 mm | 0.45 m/s, 162° | - | - |
| 1777971766 | 29.44° C | 27% | 1008.2 hPa | 0 mm | 0.45 m/s, 162° | - | - |
| 1777971464 | 28.89° C | 29% | 1008.3 hPa | 0 mm | 0.45 m/s, 190° | - | - |
| 1777971464 | 28.89° C | 29% | 1008.3 hPa | 0 mm | 0.45 m/s, 190° | - | - |
| 1777971461 | 28.89° C | 29% | 1008.3 hPa | 0 mm | 0.45 m/s, 190° | - | - |
| 1777971460 | 28.89° C | 29% | 1008.3 hPa | 0 mm | 0.45 m/s, 190° | - | - |
* Rain latest hour (hover to see other rain measurements)
** Current wind speed in m/s (hover to see current wind gust speed)